STARLINK-36714, 67924

Orbit data source: Space-Track

STARLINK-36714, 67924 is a payload satellite owned by SpaceX/Seattle (US) in LEO that was launched on Sun, 22 Feb 2026 UTC via an FALCON 9 launch vehicle from the Air Force Eastern Test Range (AFETR). Payload-class satellites include a variety of spacecraft equipped with specific instruments for various scientific and technological missions. These include communications satellites like Starlink; space stations such as the ISS; scientific satellites like the Hubble; Earth observation satellites from companies like Planet Labs, Umbra, and HawkEye 360; GPS; miniature CubeSats for education and research; and military/defense satellites.

Loading next visibility...
Identifier
67924, 2026-036W
Orbit
LEO
Country
Flag of USUS
Related business
Manufacturer
SpaceX/Seattle
Mission
Operational spacecraft
Bus & Motor
STARLINK V2MO, Unknown motor
Mass
575 kg wet, ~530 kg dry
Launch date (UTC)
2026-02-22 (2 months ago)
Launch vehicle
FALCON 9
Launch site
Air Force Eastern Test Range (AFETR)
Object type
Payload
Rocket body
Debris
Shape & HBR
Unknown shape, 17.7 m
Radar Cross Section
RCS unknown

Expand to show TLE details & history
Last TLE update: 8 hours ago

TLE from 8 hours ago
0 STARLINK-36714
1 67924U 26036W   26104.21465340  .00009721  00000-0  36216-3 0  9993
2 67924  43.0015  44.7618 0001084 262.4378  97.6351 15.27592942  9150
Epoch: 2026-04-14T05:09Z
TLE epoch observation values (Epoch: 2026-04-14T05:09:06.053Z)
Latitude
Longitude
125.09247°
Altitude
482.885 km
Speed
7.626 km/s
True Right ascension
02h 59m 02s
True Declination
0° 00' 00"
Sunlit
Object was in daylight at epoch
Visualization orbit readout
Latitude
Unknown
Longitude
Unknown
Altitude
Unknown
Speed
Unknown
Apparent Right ascension
Unknown
Apparent Declination
Unknown
Sunlit
N/A
Visualization observer readout
Local Sidereal Time
19:21:38
Azimuth
Unknown
Elevation
Unknown
Doppler factor
Unknown
Orbital elements
Apogee altitude
485.699 km
Perigee altitude
484.211 km
Semi-major axis
6,863.092 km
Eccentricity
0.00011
Inclination
43.0015°
RAAN
44.7618°
Arg. of periapsis
262.4378°
True anomaly
97.64741°
Mean anomaly
97.6351°
Eccentric anomaly
97.64126°
Mean motion
3.81736 °/min
Orbital period
94.31 mins
BSTAR
0.00036216
Loading maneuver chart data...
Computing Atmospheric mass density...
Loading historical data...
Loading historical data...
Loading historical data...
Loading historical data...
Loading historical data...
Loading historical data...
Loading historical data...

Documentation

Showing up to 5 results
|